{"data":{"norad_id":53551,"intl_designator":"2022-101AA","name":"STARLINK-4514","alt_names":[],"object_type":"PAYLOAD","status":"ACTIVE","operator":null,"country":"US","launch_date":"2022-08-19","launch_site_code":"AFETR","launch_vehicle":null,"mission":null,"orbit_class":"UNKNOWN","rcs_meters":null,"size_class":null,"mass_kg":null,"dimensions":null,"purposes":["comms"],"wikipedia_slug":null,"has_3d_model":false,"image_url":null,"decayed_at":null,"tle_current":{"epoch":"2026-09-20T05:35:11.094720Z","epoch_age_seconds":101884,"freshness":"FRESH","line1":"1 53551U 22101AA  26263.23276730 -.00000285  00000+0  27078-5 0  9998","line2":"2 53551  53.1586 258.9521 0001427  72.7535 287.3623 15.34386315226497","mean_motion":15.34386315,"eccentricity":0.0001427,"inclination_deg":53.1586,"raan_deg":258.9521,"arg_perigee_deg":72.7535,"mean_anomaly_deg":287.3623,"bstar":2.7078e-6,"rev_number":22649,"period_min":93.848595097774,"perigee_km":461.7677215068,"apogee_km":463.72010892,"semimajor_km":6840.8809152134,"source":"CELESTRAK","updated_at":"2026-09-21T09:00:32.924250Z"}}}